Location: ????????
(55.4000°N, 39.1167°E)
Time: 04:14:04
(UTC+00:00)

Cosmos 921 Rocket - Pass Details

Date: 19 May 2025
Orbit: 564 x 622 km, 75.8° (Epoch: 15 June)

Event Time Altitude Azimuth Distance (km) Brightness Sun altitude
Exits shadow 22:57:54 10° 163° (SSE) 1,840 5.0 -11.8°
Maximum altitude 23:01:27 30° 102° (ESE) 1,029 4.3 -11.6°
Drops below altitude 10° 23:05:08 10° 41° (NE) 1,888 6.9 -11.4°
Sets 23:07:32 0° 31° (NNE) 2,800 8.6 -11.2°
